Weather History for Eau Claire, WI

Change the Weather History Date:

Thursday, January 17, 2013

  Actual Average Record
Temperature  
Mean Temperature 12 °F 14 °F  
Max Temperature 18 °F 23 °F 44 °F (1947)
Min Temperature 5 °F 5 °F -32 °F (1982)
Degree Days  
Heating Degree Days 53 51  
Month to date heating degree days 793 862  
Since 1 July heating degree days 3820 4038  
Cooling Degree Days 0 0  
Month to date cooling degree days 0 0  
Year to date cooling degree days 0 0  
Moisture  
Dew Point 2 °F    
Average Humidity 69    
Maximum Humidity 88    
Minimum Humidity 49    
Precipitation  
Precipitation T in 0.03 in 0.71 in (1935)
Month to date precipitation 0.24 0.48  
Year to date precipitation 0.24 0.48  
Snow  
Snow T in 0.50 in 7.30 in (1969)
Month to date snowfall 0.1 7.0  
Since 1 July snowfall 21.9 22.8  
Snow Depth T in    
Sea Level Pressure  
Sea Level Pressure 30.36 in    
Wind  
Wind Speed 6 mph (WNW)    
Max Wind Speed 15 mph    
Max Gust Speed 20 mph    
Visibility 10 miles    
Events      
T = Trace of Precipitation, MM = Missing Value Source: NWS Daily Summary

Daily Weather History Graph

Daily Weather History Graph

Search for Another Location

Airport:

Trip Planner

Search our weather history database for the weather conditions in past years. The results will help you decide how hot, cold, wet, or windy it might be!

Date:

Astronomy

Jan. 17, 2013 Rise Set
Actual Time 7:38 AM CST 4:53 PM CST
Civil Twilight 7:06 AM CST 5:26 PM CST
Nautical Twilight 6:30 AM CST 6:02 PM CST
Astronomical Twilight 5:55 AM CST 6:37 PM CST
Moon 10:26 AM CST (1/17) No Moon Set
Length of Visible Light 10h 20m
Length of Day
9h 15m
Waxing Crescent, 38% of the Moon is Illuminated
Jan 17
Waxing Crescent
Jan 18
First Quarter
Jan 26
Full
Feb 3
Last Quarter
Feb 10
New

Hourly Weather History & Observations

Time (CST) Temp. Windchill Dew Point Humidity Pressure Visibility Wind Dir Wind Speed Gust Speed Precip Events Conditions
12:56 AM 14.0 °F 2.9 °F -0.9 °F 52% 30.24 in 10.0 mi NW 8.1 mph - N/A   Scattered Clouds
1:56 AM 14.0 °F 5.1 °F -0.9 °F 52% 30.27 in 10.0 mi NNW 5.8 mph - N/A   Overcast
2:56 AM 12.9 °F 1.6 °F -2.9 °F 49% 30.28 in 10.0 mi NNW 8.1 mph - N/A   Overcast
3:56 AM 10.9 °F 1.4 °F -2.9 °F 54% 30.29 in 10.0 mi North 5.8 mph - N/A   Overcast
4:56 AM 10.0 °F -0.9 °F -6.0 °F 48% 30.32 in 10.0 mi NNW 6.9 mph - N/A   Mostly Cloudy
6:56 AM 10.0 °F 0.4 °F -0.9 °F 61% 30.37 in 10.0 mi West 5.8 mph - N/A   Overcast
7:56 AM 10.0 °F 0.4 °F -4.0 °F 53% 30.37 in 10.0 mi WNW 5.8 mph - N/A   Overcast
8:56 AM 10.0 °F 0.4 °F -2.9 °F 56% 30.38 in 10.0 mi West 5.8 mph - N/A   Overcast
9:56 AM 12.0 °F 1.5 °F -0.9 °F 56% 30.40 in 10.0 mi West 6.9 mph - N/A   Overcast
10:56 AM 12.9 °F 0.7 °F -0.9 °F 54% 30.41 in - West 9.2 mph - N/A   Overcast
11:56 AM 14.0 °F 2.0 °F -2.0 °F 49% 30.39 in 10.0 mi West 9.2 mph - N/A   Mostly Cloudy
12:56 PM 17.1 °F 7.6 °F 1.0 °F 50% 30.37 in 10.0 mi West 6.9 mph - N/A   Overcast
1:26 PM 17.6 °F 4.3 °F 3.2 °F 53% 30.31 in 10.0 mi West 12.7 mph - N/A   Overcast
1:39 PM 17.6 °F 5.0 °F 3.2 °F 53% 30.31 in 10.0 mi West 11.5 mph - N/A   Overcast
1:56 PM 17.1 °F 3.6 °F 5.0 °F 59% 30.37 in 10.0 mi West 12.7 mph - N/A   Overcast
2:56 PM 17.1 °F 4.3 °F 6.1 °F 62% 30.36 in 10.0 mi West 11.5 mph - N/A   Overcast
3:15 PM 17.6 °F 5.0 °F 6.8 °F 63% 30.31 in 10.0 mi West 11.5 mph - N/A   Overcast
3:56 PM 16.0 °F 2.9 °F 6.1 °F 65% 30.38 in 10.0 mi West 11.5 mph - N/A   Scattered Clouds
4:44 PM 15.8 °F 7.2 °F 6.8 °F 68% 30.33 in 10.0 mi West 5.8 mph - N/A   Mostly Cloudy
4:56 PM 15.1 °F 5.2 °F 6.1 °F 68% 30.40 in 10.0 mi West 6.9 mph - N/A   Scattered Clouds
5:56 PM 12.9 °F 5.2 °F 3.9 °F 67% 30.40 in 10.0 mi WNW 4.6 mph - N/A   Clear
6:56 PM 10.9 °F 2.9 °F 3.0 °F 70% 30.42 in 10.0 mi West 4.6 mph - N/A   Clear
7:56 PM 10.0 °F - 3.0 °F 73% 30.43 in 10.0 mi Calm Calm - N/A   Clear
8:56 PM 9.0 °F - 3.0 °F 77% 30.41 in 10.0 mi Calm Calm - N/A   Scattered Clouds
9:56 PM 6.1 °F - 1.0 °F 80% 30.40 in 10.0 mi Calm Calm - N/A   Clear
10:56 PM 7.0 °F - 3.0 °F 84% 30.38 in 10.0 mi Calm Calm - N/A   Clear
11:56 PM 10.9 °F 2.9 °F 6.1 °F 81% 30.37 in 10.0 mi South 4.6 mph - N/A   Overcast